Perry, IA

8:01 PM CDT on March 27, 2017 (GMT -0500)
Perry Municipal

Weather History for KPRO - February, 2013

Change the Weather History Date:

Saturday, February 9, 2013

  Actual Average Record
Temperature  
Mean Temperature 31 °F -  
Max Temperature 36 °F 29 °F 59 °F (1954)
Min Temperature 26 °F 7 °F -33 °F (1979)
Degree Days  
Heating Degree Days 34    
Moisture  
Dew Point 28 °F    
Average Humidity 90    
Maximum Humidity 96    
Minimum Humidity 81    
Precipitation  
Precipitation 0.01 in - - ()
Sea Level Pressure  
Sea Level Pressure 30.03 in    
Wind  
Wind Speed 15 mph (SE)    
Max Wind Speed 21 mph    
Max Gust Speed 24 mph    
Visibility 7 miles    
Events Rain    
Averages and records for this station are not official NWS values.
T = Trace of Precipitation, MM = Missing Value Source: NWS Daily Summary

Daily Weather History Graph

Daily Weather History Graph

Search for Another Location

Airport or City:

Trip Planner

Search our weather history database for the weather conditions in past years. The results will help you decide how hot, cold, wet, or windy it might be!

Date:

Astronomy

Feb. 09, 2013 Rise Set
Actual Time 7:19 AM CST 5:42 PM CST
Civil Twilight 6:50 AM CST 6:11 PM CST
Nautical Twilight 6:17 AM CST 6:44 PM CST
Astronomical Twilight 5:45 AM CST 7:16 PM CST
Moon 6:31 AM CST (2/9) 5:26 PM CST (2/9)
Length of Visible Light 11h 20m
Length of Day
10h 22m
Waning Crescent, 0% of the Moon is Illuminated
Feb 9
Waning Crescent
Feb 10
New
Feb 17
First Quarter
Feb 25
Full
Mar 4
Last Quarter

Hourly Weather History & Observations

Time (CST) Temp. Windchill Dew Point Humidity Pressure Visibility Wind Dir Wind Speed Gust Speed Precip Events Conditions
12:15 AM 27.1 °F 15.9 °F 24.8 °F 91% 30.22 in 10.0 mi SSE 13.8 mph - N/A   Overcast
12:35 AM 27.1 °F 16.9 °F 24.8 °F 91% 30.22 in 10.0 mi South 11.5 mph - N/A   Overcast
12:55 AM 27.0 °F 16.7 °F 24.4 °F 90% 30.22 in 10.0 mi South 11.5 mph - N/A   Overcast
1:15 AM 27.1 °F 17.5 °F 24.8 °F 91% 30.22 in 10.0 mi SSE 10.4 mph - N/A   Overcast
1:35 AM 27.1 °F 17.5 °F 24.6 °F 90% 30.22 in 10.0 mi SSE 10.4 mph - N/A   Overcast
1:55 AM 26.6 °F 15.7 °F 24.3 °F 91% 30.22 in 10.0 mi SSE 12.7 mph - N/A   Overcast
2:15 AM 27.1 °F 16.9 °F 24.8 °F 91% 30.22 in 10.0 mi SSE 11.5 mph - N/A   Overcast
2:35 AM 27.1 °F 16.4 °F 24.8 °F 91% 30.21 in 10.0 mi SSE 12.7 mph - N/A   Overcast
2:55 AM 27.0 °F 16.1 °F 24.8 °F 92% 30.21 in 10.0 mi SSE 12.7 mph 17.3 mph N/A   Overcast
3:15 AM 26.8 °F 14.5 °F 24.8 °F 92% 30.21 in 10.0 mi SSE 16.1 mph - N/A   Overcast
3:35 AM 26.8 °F 15.4 °F 24.8 °F 92% 30.19 in 10.0 mi SSE 13.8 mph - N/A   Overcast
3:55 AM 27.0 °F 13.9 °F 24.8 °F 92% 30.18 in 10.0 mi SSE 18.4 mph - N/A   Overcast
4:15 AM 26.8 °F 12.9 °F 24.6 °F 92% 30.17 in 10.0 mi SSE 20.7 mph - N/A   Overcast
4:35 AM 27.0 °F 15.2 °F 24.8 °F 92% 30.16 in 10.0 mi SSE 15.0 mph 21.9 mph N/A   Overcast
4:55 AM 27.1 °F 14.5 °F 24.8 °F 91% 30.16 in 10.0 mi SSE 17.3 mph - N/A   Overcast
5:15 AM 27.1 °F 13.8 °F 24.8 °F 91% 30.14 in 10.0 mi SSE 19.6 mph 23.0 mph N/A   Overcast
5:35 AM 27.3 °F 17.1 °F 25.0 °F 91% 30.15 in 7.0 mi SSE 11.5 mph - N/A   Overcast
5:55 AM 27.3 °F 16.6 °F 25.0 °F 91% 30.16 in 7.0 mi SSE 12.7 mph - N/A   Overcast
6:15 AM 27.3 °F 15.2 °F 25.3 °F 92% 30.14 in 5.0 mi SSE 16.1 mph - N/A   Overcast
6:35 AM 27.5 °F 15.9 °F 25.5 °F 92% 30.13 in 5.0 mi SSE 15.0 mph - N/A   Overcast
6:55 AM 27.5 °F 14.6 °F 25.7 °F 93% 30.13 in 5.0 mi SSE 18.4 mph 21.9 mph N/A   Overcast
7:15 AM 27.9 °F 15.9 °F 26.1 °F 93% 30.11 in 5.0 mi SSE 16.1 mph - N/A   Overcast
7:35 AM 28.0 °F 16.5 °F 26.4 °F 94% 30.13 in 5.0 mi SSE 15.0 mph - N/A   Overcast
7:55 AM 28.0 °F 17.5 °F 26.4 °F 94% 30.13 in 4.0 mi SSE 12.7 mph - N/A   Overcast
8:15 AM 28.4 °F 17.0 °F 26.6 °F 93% 30.13 in 3.0 mi SSE 15.0 mph - N/A   Overcast
8:35 AM 28.6 °F 16.8 °F 27.1 °F 94% 30.12 in 3.0 mi SSE 16.1 mph 21.9 mph N/A   Overcast
8:55 AM 29.1 °F 17.5 °F 27.5 °F 94% 30.12 in 3.0 mi SSE 16.1 mph - N/A   Overcast
9:15 AM 29.3 °F 18.2 °F 27.9 °F 94% 30.11 in 3.0 mi SSE 15.0 mph - N/A   Overcast
9:35 AM 29.7 °F 18.2 °F 28.0 °F 94% 30.11 in 4.0 mi SSE 16.1 mph - N/A   Overcast
9:55 AM 30.2 °F 18.5 °F 28.4 °F 93% 30.11 in 4.0 mi SSE 17.3 mph 21.9 mph N/A   Overcast
10:15 AM 30.6 °F 19.4 °F 28.8 °F 93% 30.10 in 4.0 mi SSE 16.1 mph - N/A   Overcast
10:35 AM 30.9 °F 19.8 °F 28.9 °F 92% 30.11 in 4.0 mi SSE 16.1 mph - N/A   Overcast
10:55 AM 31.1 °F 20.1 °F 29.1 °F 92% 30.10 in 4.0 mi SSE 16.1 mph - N/A   Overcast
11:15 AM 31.6 °F 20.0 °F 29.3 °F 91% 30.09 in 5.0 mi SSE 18.4 mph - N/A   Overcast
11:35 AM 32.0 °F 20.5 °F 29.3 °F 90% 30.09 in 5.0 mi SSE 18.4 mph - N/A   Overcast
11:55 AM 32.0 °F 20.1 °F 29.7 °F 91% 30.07 in 5.0 mi SSE 19.6 mph 23.0 mph N/A   Overcast
12:15 PM 32.5 °F 21.2 °F 30.2 °F 91% 30.06 in 5.0 mi SSE 18.4 mph 21.9 mph N/A   Overcast
12:35 PM 32.9 °F 22.4 °F 30.4 °F 90% 30.05 in 5.0 mi SSE 16.1 mph - N/A   Overcast
12:55 PM 33.6 °F 22.9 °F 30.7 °F 89% 30.04 in 5.0 mi SSE 17.3 mph 23.0 mph N/A   Overcast
1:15 PM 33.8 °F 22.8 °F 30.9 °F 89% 30.02 in 5.0 mi SSE 18.4 mph - N/A   Overcast
1:35 PM 34.2 °F 23.0 °F 31.1 °F 89% 30.01 in 5.0 mi SSE 19.6 mph 23.0 mph N/A   Overcast
1:55 PM 34.7 °F 24.0 °F 31.1 °F 87% 29.99 in 5.0 mi SSE 18.4 mph - N/A   Overcast
2:15 PM 34.7 °F 24.0 °F 30.9 °F 86% 29.98 in 5.0 mi SSE 18.4 mph - N/A   Mostly Cloudy
2:35 PM 35.6 °F 25.2 °F 31.6 °F 85% 29.96 in 5.0 mi SE 18.4 mph - N/A   Mostly Cloudy
2:55 PM 35.8 °F 25.4 °F 31.5 °F 84% 29.95 in 7.0 mi SSE 18.4 mph - N/A   Mostly Cloudy
3:35 PM 36.7 °F 27.2 °F 31.8 °F 83% 29.93 in 7.0 mi SE 16.1 mph 20.7 mph N/A   Scattered Clouds
3:55 PM 36.0 °F 26.0 °F 31.3 °F 83% 29.92 in 7.0 mi SE 17.3 mph - N/A   Scattered Clouds
4:15 PM 36.7 °F 27.2 °F 31.8 °F 83% 29.91 in 7.0 mi SE 16.1 mph - N/A   Scattered Clouds
4:35 PM 36.5 °F 26.3 °F 31.1 °F 81% 29.90 in 10.0 mi SE 18.4 mph 24.2 mph N/A   Clear
4:55 PM 36.1 °F 27.7 °F 31.5 °F 83% 29.90 in 7.0 mi SE 12.7 mph - N/A   Clear
5:15 PM 35.4 °F 26.4 °F 31.1 °F 84% 29.89 in 7.0 mi SE 13.8 mph - N/A   Clear
5:35 PM 34.5 °F 26.2 °F 30.9 °F 87% 29.90 in 7.0 mi SE 11.5 mph 20.7 mph N/A   Clear
5:55 PM 34.2 °F 25.2 °F 30.9 °F 88% 29.90 in 7.0 mi SE 12.7 mph - N/A   Clear
6:15 PM 33.4 °F 23.9 °F 30.7 °F 90% 29.89 in 7.0 mi SE 13.8 mph - N/A   Clear
6:35 PM 33.1 °F 23.9 °F 30.7 °F 91% 29.89 in 10.0 mi SE 12.7 mph 18.4 mph N/A   Clear
7:15 PM 33.1 °F 23.9 °F 30.7 °F 91% 29.89 in 10.0 mi SE 12.7 mph - N/A   Clear
7:35 PM 33.4 °F 23.5 °F 30.7 °F 90% 29.89 in 10.0 mi SE 15.0 mph - N/A   Clear
7:55 PM 33.4 °F 23.9 °F 30.2 °F 88% 29.88 in 10.0 mi SE 13.8 mph 21.9 mph N/A   Scattered Clouds
8:15 PM 33.1 °F 23.4 °F 30.2 °F 89% 29.87 in 10.0 mi ESE 13.8 mph - N/A   Scattered Clouds
8:35 PM 32.9 °F 22.8 °F 30.2 °F 90% 29.87 in 10.0 mi SE 15.0 mph 18.4 mph N/A   Clear
8:55 PM 32.9 °F 22.4 °F 30.0 °F 89% 29.85 in 10.0 mi SE 16.1 mph - N/A   Scattered Clouds
9:15 PM 32.7 °F 22.5 °F 30.2 °F 90% 29.85 in 7.0 mi SE 15.0 mph - N/A   Scattered Clouds
9:35 PM 32.9 °F 23.2 °F 30.2 °F 90% 29.85 in 7.0 mi SE 13.8 mph 18.4 mph N/A   Mostly Cloudy
9:55 PM 32.9 °F 24.1 °F 30.6 °F 91% 29.86 in 7.0 mi SE 11.5 mph - N/A   Overcast
10:15 PM 32.9 °F 23.7 °F 30.7 °F 92% 29.85 in 7.0 mi SE 12.7 mph - N/A   Mostly Cloudy
10:35 PM 32.9 °F 23.2 °F 30.9 °F 92% 29.84 in 7.0 mi SE 13.8 mph - N/A Rain Light Rain
10:55 PM 32.9 °F 23.2 °F 31.5 °F 94% 29.83 in 5.0 mi SE 13.8 mph - N/A Rain Light Rain
11:15 PM 32.9 °F 22.8 °F 31.8 °F 96% 29.82 in 5.0 mi SE 15.0 mph - N/A Rain Light Rain
11:35 PM 32.9 °F 22.4 °F 32.0 °F 96% 29.80 in 4.0 mi ESE 16.1 mph - 0.01 in Rain Light Rain
11:55 PM 32.9 °F 22.0 °F 32.0 °F 96% 29.78 in 5.0 mi ESE 17.3 mph - 0.01 in Rain Light Rain